Danbury, CT

1:03 AM EDT on April 28, 2017 (GMT -0400)
Danbury Municipal

Weather History for KDXR - March, 2013

Change the Weather History Date:

Friday, March 22, 2013

  Actual Average Record
Temperature  
Mean Temperature 31 °F -  
Max Temperature 37 °F 48 °F 75 °F (2012)
Min Temperature 25 °F 29 °F 12 °F (1986)
Degree Days  
Heating Degree Days 34    
Moisture  
Dew Point 16 °F    
Average Humidity 52    
Maximum Humidity 63    
Minimum Humidity 41    
Precipitation  
Precipitation 0.00 in - - ()
Sea Level Pressure  
Sea Level Pressure 29.76 in    
Wind  
Wind Speed 7 mph (West)    
Max Wind Speed 14 mph    
Max Gust Speed 24 mph    
Visibility 10 miles    
Events      
Averages and records for this station are not official NWS values.
T = Trace of Precipitation, MM = Missing Value Source: NWS Daily Summary

Daily Weather History Graph

Daily Weather History Graph

Search for Another Location

Airport or City:

Trip Planner

Search our weather history database for the weather conditions in past years. The results will help you decide how hot, cold, wet, or windy it might be!

Date:

Astronomy

Mar. 22, 2013 Rise Set
Actual Time 6:53 AM EDT 7:08 PM EDT
Civil Twilight 6:25 AM EDT 7:36 PM EDT
Nautical Twilight 5:53 AM EDT 8:08 PM EDT
Astronomical Twilight 5:20 AM EDT 8:41 PM EDT
Moon 2:30 PM EDT (3/22) 3:55 AM EDT (3/22)
Length of Visible Light 13h 10m
Length of Day
12h 15m
Waxing Gibbous, 77% of the Moon is Illuminated
Mar 22
Waxing Gibbous
Mar 27
Full
Apr 3
Last Quarter
Apr 10
New
Apr 18
First Quarter

Hourly Weather History & Observations

Time (EDT) Temp. Windchill Dew Point Humidity Pressure Visibility Wind Dir Wind Speed Gust Speed Precip Events Conditions
12:53 AM 28.9 °F 25.2 °F 10.9 °F 47% 29.72 in 10.0 mi NNW 3.5 mph - N/A   Clear
1:53 AM 27.0 °F 21.6 °F 12.0 °F 53% 29.73 in 10.0 mi West 4.6 mph - N/A   Clear
2:53 AM 26.1 °F 21.9 °F 10.9 °F 53% 29.72 in 10.0 mi West 3.5 mph - N/A   Clear
3:53 AM 26.1 °F 19.4 °F 10.0 °F 51% 29.71 in 10.0 mi West 5.8 mph - N/A   Clear
4:53 AM 26.1 °F 18.4 °F 12.0 °F 55% 29.70 in 10.0 mi West 6.9 mph - N/A   Clear
5:53 AM 25.0 °F 18.1 °F 12.9 °F 60% 29.71 in 10.0 mi West 5.8 mph - N/A   Clear
6:53 AM 25.0 °F 19.3 °F 14.0 °F 63% 29.73 in 10.0 mi WSW 4.6 mph - N/A   Clear
7:53 AM 27.0 °F 21.6 °F 16.0 °F 63% 29.74 in 10.0 mi West 4.6 mph - N/A   Scattered Clouds
8:53 AM 30.0 °F 21.7 °F 17.1 °F 59% 29.75 in 10.0 mi WNW 9.2 mph - N/A   Clear
9:53 AM 30.9 °F 25.2 °F 17.1 °F 57% 29.76 in 10.0 mi West 5.8 mph 18.4 mph N/A   Partly Cloudy
10:53 AM 33.1 °F 24.4 °F 17.1 °F 52% 29.77 in 10.0 mi WNW 11.5 mph 17.3 mph N/A   Clear
11:53 AM 36.0 °F 31.1 °F 17.1 °F 46% 29.76 in 10.0 mi Variable 5.8 mph 17.3 mph N/A   Mostly Cloudy
12:53 PM 35.1 °F 26.9 °F 16.0 °F 46% 29.77 in 10.0 mi WNW 11.5 mph 21.9 mph N/A   Overcast
1:53 PM 37.0 °F 29.8 °F 15.1 °F 41% 29.75 in 10.0 mi WNW 10.4 mph 17.3 mph N/A   Mostly Cloudy
2:53 PM 37.9 °F 29.6 °F 16.0 °F 41% 29.75 in 10.0 mi West 13.8 mph 24.2 mph N/A   Overcast
3:53 PM 36.0 °F 28.5 °F 18.0 °F 48% 29.75 in 10.0 mi West 10.4 mph 16.1 mph N/A   Overcast
4:53 PM 37.0 °F 28.5 °F 18.0 °F 46% 29.76 in 10.0 mi West 13.8 mph 20.7 mph N/A   Overcast
5:53 PM 37.0 °F 30.4 °F 18.0 °F 46% 29.77 in 10.0 mi West 9.2 mph - N/A   Overcast
6:53 PM 36.0 °F 27.1 °F 18.0 °F 48% 29.78 in 10.0 mi West 13.8 mph 21.9 mph N/A   Overcast
7:53 PM 35.1 °F 27.9 °F 19.0 °F 52% 29.81 in 10.0 mi West 9.2 mph 16.1 mph N/A   Partly Cloudy
8:53 PM 34.0 °F 25.5 °F 19.0 °F 54% 29.83 in 10.0 mi West 11.5 mph 20.7 mph N/A   Partly Cloudy
9:53 PM 34.0 °F 26.0 °F 19.9 °F 56% 29.84 in 10.0 mi WNW 10.4 mph 16.1 mph N/A   Scattered Clouds
10:53 PM 34.0 °F 27.2 °F 19.9 °F 56% 29.83 in 10.0 mi West 8.1 mph 18.4 mph N/A   Mostly Cloudy
11:53 PM 34.0 °F 26.0 °F 19.9 °F 56% 29.84 in 10.0 mi West 10.4 mph - N/A   Overcast